iso_date,epoch_date,Year,Hour,Min,DOY,POS_DOY,Lat,Lon,BP,Ts,Ta,has_bp,has_ts,has_ta,BuoyID,Buoy_Type,Buoy_Owner,Logistics,Hemisphere
2016-02-26T19:59:31Z,1456516771,2016,20,0,57.833,57.833,70.2008,-148.44459,1004.2,3.4,-999.0,yes,yes,no,300234063982330,SVP-B,USIABP,APLIS,North
2016-03-08T19:59:31Z,1457467171,2016,20,0,68.833,68.833,73.1746,-147.9904,1022.3,-25.12,-999.0,yes,yes,no,300234063982330,SVP-B,USIABP,APLIS,North
2016-03-08T21:00:00Z,1457470800,2016,21,0,68.875,68.875,73.1756,-148.021,1022.2,-24.95,-999.0,yes,yes,no,300234063982330,SVP-B,USIABP,APLIS,North
2016-03-08T22:00:28Z,1457474429,2016,22,0,68.917,68.917,73.1768,-148.052,1022.2,-24.46,-999.0,yes,yes,no,300234063982330,SVP-B,USIABP,APLIS,North
2016-03-08T22:59:31Z,1457477971,2016,23,0,68.958,68.958,73.1784,-148.0824,1022.2,-24.43,-999.0,yes,yes,no,300234063982330,SVP-B,USIABP,APLIS,North
2016-03-09T00:00:00Z,1457481600,2016,0,0,69.0,69.0,73.1806,-148.1124,1022.0,-24.74,-999.0,yes,yes,no,300234063982330,SVP-B,USIABP,APLIS,North
2016-03-09T01:00:28Z,1457485229,2016,1,0,69.042,69.042,73.1826,-148.1414,1022.0,-25.08,-999.0,yes,yes,no,300234063982330,SVP-B,USIABP,APLIS,North
2016-03-09T01:59:31Z,1457488771,2016,2,0,69.083,69.083,73.1846,-148.1698,1021.8,-25.5,-999.0,yes,yes,no,300234063982330,SVP-B,USIABP,APLIS,North
2016-03-09T03:00:00Z,1457492400,2016,3,0,69.125,69.125,73.1862,-148.1958,1021.8,-26.11,-999.0,yes,yes,no,300234063982330,SVP-B,USIABP,APLIS,North
2016-03-09T04:00:28Z,1457496029,2016,4,0,69.167,69.167,73.1878,-148.2202,1022.0,-26.77,-999.0,yes,yes,no,300234063982330,SVP-B,USIABP,APLIS,North
2016-03-09T04:59:31Z,1457499571,2016,5,0,69.208,69.208,73.189,-148.2446,1022.1,-27.13,-999.0,yes,yes,no,300234063982330,SVP-B,USIABP,APLIS,North
2016-03-09T06:00:00Z,1457503200,2016,6,0,69.25,69.25,73.1902,-148.2682,1022.0,-27.51,-999.0,yes,yes,no,300234063982330,SVP-B,USIABP,APLIS,North
2016-03-09T07:00:28Z,1457506829,2016,7,0,69.292,69.292,73.1902,-148.2912,1021.9,-27.89,-999.0,yes,yes,no,300234063982330,SVP-B,USIABP,APLIS,North
2016-03-09T07:59:31Z,1457510371,2016,8,0,69.333,69.333,73.1902,-148.3138,1021.7,-27.99,-999.0,yes,yes,no,300234063982330,SVP-B,USIABP,APLIS,North
2016-03-09T09:00:00Z,1457514000,2016,9,0,69.375,69.375,73.1902,-148.3354,1021.8,-27.97,-999.0,yes,yes,no,300234063982330,SVP-B,USIABP,APLIS,North
2016-03-09T10:00:28Z,1457517629,2016,10,0,69.417,69.417,73.1904,-148.358,1021.9,-28.02,-999.0,yes,yes,no,300234063982330,SVP-B,USIABP,APLIS,North
2016-03-09T10:59:31Z,1457521171,2016,11,0,69.458,69.458,73.19,-148.3802,1022.0,-28.07,-999.0,yes,yes,no,300234063982330,SVP-B,USIABP,APLIS,North
2016-03-09T12:00:00Z,1457524800,2016,12,0,69.5,69.5,73.1902,-148.40199,1021.8,-28.0,-999.0,yes,yes,no,300234063982330,SVP-B,USIABP,APLIS,North
2016-03-09T13:00:28Z,1457528429,2016,13,0,69.542,69.542,73.19,-148.42239,1021.6,-28.1,-999.0,yes,yes,no,300234063982330,SVP-B,USIABP,APLIS,North
2016-03-09T13:59:31Z,1457531971,2016,14,0,69.583,69.583,73.19,-148.4418,1021.5,-28.52,-999.0,yes,yes,no,300234063982330,SVP-B,USIABP,APLIS,North
2016-03-09T15:00:00Z,1457535600,2016,15,0,69.625,69.625,73.1898,-148.46021,1021.5,-28.78,-999.0,yes,yes,no,300234063982330,SVP-B,USIABP,APLIS,North
2016-03-09T16:00:28Z,1457539229,2016,16,0,69.667,69.667,73.1896,-148.4776,1021.5,-28.93,-999.0,yes,yes,no,300234063982330,SVP-B,USIABP,APLIS,North
2016-03-09T16:59:31Z,1457542771,2016,17,0,69.708,69.708,73.1894,-148.4948,1021.1,-29.16,-999.0,yes,yes,no,300234063982330,SVP-B,USIABP,APLIS,North
2016-03-09T18:00:00Z,1457546400,2016,18,0,69.75,69.75,73.1892,-148.5114,1020.9,-28.85,-999.0,yes,yes,no,300234063982330,SVP-B,USIABP,APLIS,North
2016-03-09T19:00:28Z,1457550029,2016,19,0,69.792,69.792,73.189,-148.5284,1020.7,-28.37,-999.0,yes,yes,no,300234063982330,SVP-B,USIABP,APLIS,North
2016-03-09T19:59:31Z,1457553571,2016,20,0,69.833,69.833,73.1888,-148.5462,1020.5,-27.46,-999.0,yes,yes,no,300234063982330,SVP-B,USIABP,APLIS,North
2016-03-09T21:00:00Z,1457557200,2016,21,0,69.875,69.875,73.1886,-148.56461,1020.3,-26.8,-999.0,yes,yes,no,300234063982330,SVP-B,USIABP,APLIS,North
2016-03-09T22:00:28Z,1457560829,2016,22,0,69.917,69.917,73.1884,-148.5844,1020.3,-26.32,-999.0,yes,yes,no,300234063982330,SVP-B,USIABP,APLIS,North
2016-03-09T22:59:31Z,1457564371,2016,23,0,69.958,69.958,73.1882,-148.6044,1019.9,-26.29,-999.0,yes,yes,no,300234063982330,SVP-B,USIABP,APLIS,North
2016-03-10T00:00:00Z,1457568000,2016,0,0,70.0,70.0,73.1882,-148.62579,1019.7,-26.38,-999.0,yes,yes,no,300234063982330,SVP-B,USIABP,APLIS,North
2016-03-10T01:00:28Z,1457571629,2016,1,0,70.042,70.042,73.1888,-148.64661,1019.5,-26.33,-999.0,yes,yes,no,300234063982330,SVP-B,USIABP,APLIS,North
2016-03-10T01:59:31Z,1457575171,2016,2,0,70.083,70.083,73.189,-148.6684,1019.3,-26.4,-999.0,yes,yes,no,300234063982330,SVP-B,USIABP,APLIS,North
2016-03-10T03:00:00Z,1457578800,2016,3,0,70.125,70.125,73.189,-148.69,1018.9,-26.67,-999.0,yes,yes,no,300234063982330,SVP-B,USIABP,APLIS,North
2016-03-10T04:00:28Z,1457582429,2016,4,0,70.167,70.167,73.1892,-148.7104,1018.9,-27.0,-999.0,yes,yes,no,300234063982330,SVP-B,USIABP,APLIS,North
2016-03-10T04:59:31Z,1457585971,2016,5,0,70.208,70.208,73.189,-148.7292,1018.7,-27.04,-999.0,yes,yes,no,300234063982330,SVP-B,USIABP,APLIS,North
2016-03-10T06:00:00Z,1457589600,2016,6,0,70.25,70.25,73.1892,-148.7486,1018.4,-26.94,-999.0,yes,yes,no,300234063982330,SVP-B,USIABP,APLIS,North
2016-03-10T07:00:28Z,1457593229,2016,7,0,70.292,70.292,73.1894,-148.7692,1018.2,-26.66,-999.0,yes,yes,no,300234063982330,SVP-B,USIABP,APLIS,North
2016-03-10T07:59:31Z,1457596771,2016,8,0,70.333,70.333,73.1896,-148.78999,1017.7,-26.58,-999.0,yes,yes,no,300234063982330,SVP-B,USIABP,APLIS,North
2016-03-10T09:00:00Z,1457600400,2016,9,0,70.375,70.375,73.1898,-148.81039,1017.6,-26.49,-999.0,yes,yes,no,300234063982330,SVP-B,USIABP,APLIS,North
2016-03-10T10:00:28Z,1457604029,2016,10,0,70.417,70.417,73.1902,-148.83141,1017.4,-27.1,-999.0,yes,yes,no,300234063982330,SVP-B,USIABP,APLIS,North
2016-03-10T10:59:31Z,1457607571,2016,11,0,70.458,70.458,73.1902,-148.853,1017.4,-27.12,-999.0,yes,yes,no,300234063982330,SVP-B,USIABP,APLIS,North
2016-03-10T12:00:00Z,1457611200,2016,12,0,70.5,70.5,73.1904,-148.8752,1016.9,-27.22,-999.0,yes,yes,no,300234063982330,SVP-B,USIABP,APLIS,North
2016-03-10T13:00:28Z,1457614829,2016,13,0,70.542,70.542,73.1904,-148.89619,1016.7,-27.28,-999.0,yes,yes,no,300234063982330,SVP-B,USIABP,APLIS,North
2016-03-10T13:59:31Z,1457618371,2016,14,0,70.583,70.583,73.191,-148.9178,1016.1,-27.24,-999.0,yes,yes,no,300234063982330,SVP-B,USIABP,APLIS,North
2016-03-10T15:00:00Z,1457622000,2016,15,0,70.625,70.625,73.1914,-148.9388,1015.9,-27.26,-999.0,yes,yes,no,300234063982330,SVP-B,USIABP,APLIS,North
2016-03-10T16:00:28Z,1457625629,2016,16,0,70.667,70.667,73.1918,-148.9594,1015.6,-27.38,-999.0,yes,yes,no,300234063982330,SVP-B,USIABP,APLIS,North
2016-03-10T16:59:31Z,1457629171,2016,17,0,70.708,70.708,73.192,-148.9792,1015.6,-27.57,-999.0,yes,yes,no,300234063982330,SVP-B,USIABP,APLIS,North
2016-03-10T18:00:00Z,1457632800,2016,18,0,70.75,70.75,73.1922,-148.9988,1015.2,-27.25,-999.0,yes,yes,no,300234063982330,SVP-B,USIABP,APLIS,North
2016-03-10T19:00:28Z,1457636429,2016,19,0,70.792,70.792,73.1926,-149.018,1014.9,-26.65,-999.0,yes,yes,no,300234063982330,SVP-B,USIABP,APLIS,North
2016-03-10T19:59:31Z,1457639971,2016,20,0,70.833,70.833,73.1922,-149.0378,1014.9,-25.89,-999.0,yes,yes,no,300234063982330,SVP-B,USIABP,APLIS,North
2016-03-10T21:00:00Z,1457643600,2016,21,0,70.875,70.875,73.1914,-149.058,1014.8,-25.23,-999.0,yes,yes,no,300234063982330,SVP-B,USIABP,APLIS,North
2016-03-10T22:00:28Z,1457647229,2016,22,0,70.917,70.917,73.1906,-149.0786,1014.8,-24.94,-999.0,yes,yes,no,300234063982330,SVP-B,USIABP,APLIS,North
2016-03-10T22:59:31Z,1457650771,2016,23,0,70.958,70.958,73.1902,-149.0992,1014.7,-24.88,-999.0,yes,yes,no,300234063982330,SVP-B,USIABP,APLIS,North
2016-03-11T00:00:00Z,1457654400,2016,0,0,71.0,71.0,73.1898,-149.12061,1014.6,-24.98,-999.0,yes,yes,no,300234063982330,SVP-B,USIABP,APLIS,North
2016-03-11T01:00:28Z,1457658029,2016,1,0,71.042,71.042,73.1898,-149.1416,1014.4,-24.97,-999.0,yes,yes,no,300234063982330,SVP-B,USIABP,APLIS,North
2016-03-11T01:59:31Z,1457661571,2016,2,0,71.083,71.083,73.1898,-149.16119,1014.4,-24.98,-999.0,yes,yes,no,300234063982330,SVP-B,USIABP,APLIS,North
2016-03-11T03:00:00Z,1457665200,2016,3,0,71.125,71.125,73.1894,-149.1796,1014.3,-25.06,-999.0,yes,yes,no,300234063982330,SVP-B,USIABP,APLIS,North
2016-03-11T04:00:28Z,1457668829,2016,4,0,71.167,71.167,73.1894,-149.1964,1014.5,-25.4,-999.0,yes,yes,no,300234063982330,SVP-B,USIABP,APLIS,North
2016-03-11T04:59:31Z,1457672371,2016,5,0,71.208,71.208,73.1892,-149.21201,1014.5,-25.78,-999.0,yes,yes,no,300234063982330,SVP-B,USIABP,APLIS,North
2016-03-11T06:00:00Z,1457676000,2016,6,0,71.25,71.25,73.1888,-149.22479,1014.7,-26.08,-999.0,yes,yes,no,300234063982330,SVP-B,USIABP,APLIS,North
2016-03-11T07:00:28Z,1457679629,2016,7,0,71.292,71.292,73.1884,-149.23579,1014.7,-26.03,-999.0,yes,yes,no,300234063982330,SVP-B,USIABP,APLIS,North
2016-03-11T07:59:31Z,1457683171,2016,8,0,71.333,71.333,73.1878,-149.2458,1014.9,-25.89,-999.0,yes,yes,no,300234063982330,SVP-B,USIABP,APLIS,North
2016-03-11T09:00:00Z,1457686800,2016,9,0,71.375,71.375,73.187,-149.2552,1015.1,-26.02,-999.0,yes,yes,no,300234063982330,SVP-B,USIABP,APLIS,North
2016-03-11T10:00:28Z,1457690429,2016,10,0,71.417,71.417,73.1862,-149.2632,1015.4,-26.17,-999.0,yes,yes,no,300234063982330,SVP-B,USIABP,APLIS,North
2016-03-11T10:59:31Z,1457693971,2016,11,0,71.458,71.458,73.1852,-149.27139,1015.7,-26.33,-999.0,yes,yes,no,300234063982330,SVP-B,USIABP,APLIS,North
2016-03-11T12:00:00Z,1457697600,2016,12,0,71.5,71.5,73.184,-149.27859,1015.8,-26.73,-999.0,yes,yes,no,300234063982330,SVP-B,USIABP,APLIS,North
2016-03-11T13:00:28Z,1457701229,2016,13,0,71.542,71.542,73.1828,-149.286,1015.6,-26.85,-999.0,yes,yes,no,300234063982330,SVP-B,USIABP,APLIS,North
2016-03-11T13:59:31Z,1457704771,2016,14,0,71.583,71.583,73.1812,-149.293,1015.6,-27.13,-999.0,yes,yes,no,300234063982330,SVP-B,USIABP,APLIS,North
2016-03-11T15:00:00Z,1457708400,2016,15,0,71.625,71.625,73.1792,-149.302,1015.9,-27.33,-999.0,yes,yes,no,300234063982330,SVP-B,USIABP,APLIS,North
2016-03-11T16:00:28Z,1457712029,2016,16,0,71.667,71.667,73.1774,-149.3134,1016.1,-27.42,-999.0,yes,yes,no,300234063982330,SVP-B,USIABP,APLIS,North
2016-03-11T16:59:31Z,1457715571,2016,17,0,71.708,71.708,73.1756,-149.325,1016.4,-27.48,-999.0,yes,yes,no,300234063982330,SVP-B,USIABP,APLIS,North
2016-03-11T18:00:00Z,1457719200,2016,18,0,71.75,71.75,73.1738,-149.33859,1016.6,-26.79,-999.0,yes,yes,no,300234063982330,SVP-B,USIABP,APLIS,North
2016-03-11T19:00:28Z,1457722829,2016,19,0,71.792,71.792,73.1724,-149.3548,1016.6,-25.67,-999.0,yes,yes,no,300234063982330,SVP-B,USIABP,APLIS,North
2016-03-11T19:59:31Z,1457726371,2016,20,0,71.833,71.833,73.1712,-149.36881,1017.0,-24.72,-999.0,yes,yes,no,300234063982330,SVP-B,USIABP,APLIS,North
2016-03-11T21:00:00Z,1457730000,2016,21,0,71.875,71.875,73.1706,-149.38181,1017.3,-23.57,-999.0,yes,yes,no,300234063982330,SVP-B,USIABP,APLIS,North
2016-03-11T22:00:28Z,1457733629,2016,22,0,71.917,71.917,73.1706,-149.3934,1017.5,-22.97,-999.0,yes,yes,no,300234063982330,SVP-B,USIABP,APLIS,North
2016-03-11T22:59:31Z,1457737171,2016,23,0,71.958,71.958,73.171,-149.40581,1018.0,-22.53,-999.0,yes,yes,no,300234063982330,SVP-B,USIABP,APLIS,North
2016-03-12T00:00:00Z,1457740800,2016,0,0,72.0,72.0,73.171,-149.4174,1018.4,-21.97,-999.0,yes,yes,no,300234063982330,SVP-B,USIABP,APLIS,North
2016-03-12T01:00:28Z,1457744429,2016,1,0,72.042,72.042,73.171,-149.4292,1018.8,-22.71,-999.0,yes,yes,no,300234063982330,SVP-B,USIABP,APLIS,North
2016-03-12T01:59:31Z,1457747971,2016,2,0,72.083,72.083,73.1702,-149.4382,1019.0,-23.05,-999.0,yes,yes,no,300234063982330,SVP-B,USIABP,APLIS,North
2016-03-12T03:00:00Z,1457751600,2016,3,0,72.125,72.125,73.1694,-149.44521,1019.2,-23.45,-999.0,yes,yes,no,300234063982330,SVP-B,USIABP,APLIS,North
2016-03-12T04:00:28Z,1457755229,2016,4,0,72.167,72.167,73.169,-149.4518,1019.9,-24.06,-999.0,yes,yes,no,300234063982330,SVP-B,USIABP,APLIS,North
2016-03-12T04:59:31Z,1457758771,2016,5,0,72.208,72.208,73.1688,-149.45821,1020.3,-24.63,-999.0,yes,yes,no,300234063982330,SVP-B,USIABP,APLIS,North
2016-03-12T06:00:00Z,1457762400,2016,6,0,72.25,72.25,73.169,-149.4644,1020.8,-24.87,-999.0,yes,yes,no,300234063982330,SVP-B,USIABP,APLIS,North
2016-03-12T07:00:28Z,1457766029,2016,7,0,72.292,72.292,73.1692,-149.47,1021.1,-25.63,-999.0,yes,yes,no,300234063982330,SVP-B,USIABP,APLIS,North
2016-03-12T07:59:31Z,1457769571,2016,8,0,72.333,72.333,73.1694,-149.4752,1021.5,-26.49,-999.0,yes,yes,no,300234063982330,SVP-B,USIABP,APLIS,North
2016-03-12T09:00:00Z,1457773200,2016,9,0,72.375,72.375,73.17,-149.48019,1021.7,-26.96,-999.0,yes,yes,no,300234063982330,SVP-B,USIABP,APLIS,North
2016-03-12T10:00:28Z,1457776829,2016,10,0,72.417,72.417,73.1704,-149.485,1022.0,-27.51,-999.0,yes,yes,no,300234063982330,SVP-B,USIABP,APLIS,North
2016-03-12T10:59:31Z,1457780371,2016,11,0,72.458,72.458,73.1708,-149.4892,1022.1,-28.21,-999.0,yes,yes,no,300234063982330,SVP-B,USIABP,APLIS,North
2016-03-12T12:00:00Z,1457784000,2016,12,0,72.5,72.5,73.1708,-149.4928,1022.2,-28.42,-999.0,yes,yes,no,300234063982330,SVP-B,USIABP,APLIS,North
2016-03-12T13:00:28Z,1457787629,2016,13,0,72.542,72.542,73.1708,-149.496,1022.1,-28.3,-999.0,yes,yes,no,300234063982330,SVP-B,USIABP,APLIS,North
2016-03-12T13:59:31Z,1457791171,2016,14,0,72.583,72.583,73.1708,-149.49921,1022.2,-28.7,-999.0,yes,yes,no,300234063982330,SVP-B,USIABP,APLIS,North
2016-03-12T15:00:00Z,1457794800,2016,15,0,72.625,72.625,73.1712,-149.50259,1022.0,-27.09,-999.0,yes,yes,no,300234063982330,SVP-B,USIABP,APLIS,North
2016-03-12T16:00:28Z,1457798429,2016,16,0,72.667,72.667,73.1716,-149.5056,1021.9,-26.28,-999.0,yes,yes,no,300234063982330,SVP-B,USIABP,APLIS,North
2016-03-12T16:59:31Z,1457801971,2016,17,0,72.708,72.708,73.1716,-149.507,1021.7,-27.02,-999.0,yes,yes,no,300234063982330,SVP-B,USIABP,APLIS,North
2016-03-12T18:00:00Z,1457805600,2016,18,0,72.75,72.75,73.171,-149.5072,1021.6,-25.71,-999.0,yes,yes,no,300234063982330,SVP-B,USIABP,APLIS,North
2016-03-12T19:00:28Z,1457809229,2016,19,0,72.792,72.792,73.1702,-149.5072,1021.4,-24.5,-999.0,yes,yes,no,300234063982330,SVP-B,USIABP,APLIS,North
2016-03-12T19:59:31Z,1457812771,2016,20,0,72.833,72.833,73.1694,-149.5058,1021.2,-22.69,-999.0,yes,yes,no,300234063982330,SVP-B,USIABP,APLIS,North
2016-03-12T21:00:00Z,1457816400,2016,21,0,72.875,72.875,73.1686,-149.504,1021.1,-21.56,-999.0,yes,yes,no,300234063982330,SVP-B,USIABP,APLIS,North
2016-03-12T22:00:28Z,1457820029,2016,22,0,72.917,72.917,73.168,-149.502,1020.9,-21.72,-999.0,yes,yes,no,300234063982330,SVP-B,USIABP,APLIS,North
2016-03-12T22:59:31Z,1457823571,2016,23,0,72.958,72.958,73.1672,-149.4994,1020.5,-21.88,-999.0,yes,yes,no,300234063982330,SVP-B,USIABP,APLIS,North
2016-03-13T00:00:00Z,1457827200,2016,0,0,73.0,73.0,73.1664,-149.4968,1020.0,-22.72,-999.0,yes,yes,no,300234063982330,SVP-B,USIABP,APLIS,North
2016-03-13T01:00:28Z,1457830829,2016,1,0,73.042,73.042,73.1664,-149.4948,1019.5,-23.83,-999.0,yes,yes,no,300234063982330,SVP-B,USIABP,APLIS,North
2016-03-13T01:59:31Z,1457834371,2016,2,0,73.083,73.083,73.1658,-149.4922,1019.2,-24.63,-999.0,yes,yes,no,300234063982330,SVP-B,USIABP,APLIS,North
2016-03-13T03:00:00Z,1457838000,2016,3,0,73.125,73.125,73.1648,-149.489,1018.9,-25.15,-999.0,yes,yes,no,300234063982330,SVP-B,USIABP,APLIS,North
2016-03-13T04:00:28Z,1457841629,2016,4,0,73.167,73.167,73.1638,-149.48621,1018.8,-24.37,-999.0,yes,yes,no,300234063982330,SVP-B,USIABP,APLIS,North
2016-03-13T04:59:31Z,1457845171,2016,5,0,73.208,73.208,73.163,-149.48379,1018.6,-25.22,-999.0,yes,yes,no,300234063982330,SVP-B,USIABP,APLIS,North
2016-03-13T06:00:00Z,1457848800,2016,6,0,73.25,73.25,73.1622,-149.482,1018.3,-25.47,-999.0,yes,yes,no,300234063982330,SVP-B,USIABP,APLIS,North
2016-03-13T07:00:28Z,1457852429,2016,7,0,73.292,73.292,73.1612,-149.48039,1018.2,-25.15,-999.0,yes,yes,no,300234063982330,SVP-B,USIABP,APLIS,North
2016-03-13T07:59:31Z,1457855971,2016,8,0,73.333,73.333,73.161,-149.4796,1018.3,-23.62,-999.0,yes,yes,no,300234063982330,SVP-B,USIABP,APLIS,North
2016-03-13T09:00:00Z,1457859600,2016,9,0,73.375,73.375,73.161,-149.4792,1018.3,-22.7,-999.0,yes,yes,no,300234063982330,SVP-B,USIABP,APLIS,North
2016-03-13T10:00:28Z,1457863229,2016,10,0,73.417,73.417,73.161,-149.47861,1018.1,-22.04,-999.0,yes,yes,no,300234063982330,SVP-B,USIABP,APLIS,North
2016-03-13T10:59:31Z,1457866771,2016,11,0,73.458,73.458,73.161,-149.4778,1017.9,-21.49,-999.0,yes,yes,no,300234063982330,SVP-B,USIABP,APLIS,North
2016-03-13T12:00:00Z,1457870400,2016,12,0,73.5,73.5,73.1606,-149.4762,1017.8,-21.01,-999.0,yes,yes,no,300234063982330,SVP-B,USIABP,APLIS,North
2016-03-13T13:00:28Z,1457874029,2016,13,0,73.542,73.542,73.16,-149.4734,1017.5,-21.06,-999.0,yes,yes,no,300234063982330,SVP-B,USIABP,APLIS,North
2016-03-13T13:59:31Z,1457877571,2016,14,0,73.583,73.583,73.1594,-149.4704,1017.2,-22.92,-999.0,yes,yes,no,300234063982330,SVP-B,USIABP,APLIS,North
2016-03-13T15:00:00Z,1457881200,2016,15,0,73.625,73.625,73.1582,-149.46719,1016.8,-23.83,-999.0,yes,yes,no,300234063982330,SVP-B,USIABP,APLIS,North
2016-03-13T16:00:28Z,1457884829,2016,16,0,73.667,73.667,73.1574,-149.4644,1016.4,-24.33,-999.0,yes,yes,no,300234063982330,SVP-B,USIABP,APLIS,North
2016-03-13T16:59:31Z,1457888371,2016,17,0,73.708,73.708,73.1566,-149.4612,1016.4,-24.67,-999.0,yes,yes,no,300234063982330,SVP-B,USIABP,APLIS,North
2016-03-13T18:00:00Z,1457892000,2016,18,0,73.75,73.75,73.1554,-149.45821,1016.1,-23.99,-999.0,yes,yes,no,300234063982330,SVP-B,USIABP,APLIS,North
2016-03-13T19:00:28Z,1457895629,2016,19,0,73.792,73.792,73.1546,-149.45621,1015.9,-22.84,-999.0,yes,yes,no,300234063982330,SVP-B,USIABP,APLIS,North
2016-03-13T19:59:31Z,1457899171,2016,20,0,73.833,73.833,73.1522,-149.45219,1015.9,-20.87,-999.0,yes,yes,no,300234063982330,SVP-B,USIABP,APLIS,North
2016-03-13T21:00:00Z,1457902800,2016,21,0,73.875,73.875,73.15,-149.4492,1016.0,-21.17,-999.0,yes,yes,no,300234063982330,SVP-B,USIABP,APLIS,North
2016-03-13T22:00:28Z,1457906429,2016,22,0,73.917,73.917,73.1474,-149.448,1015.7,-20.79,-999.0,yes,yes,no,300234063982330,SVP-B,USIABP,APLIS,North
2016-03-13T22:59:31Z,1457909971,2016,23,0,73.958,73.958,73.146,-149.4464,1015.6,-20.21,-999.0,yes,yes,no,300234063982330,SVP-B,USIABP,APLIS,North
2016-03-14T00:00:00Z,1457913600,2016,0,0,74.0,74.0,73.145,-149.4454,1015.5,-19.95,-999.0,yes,yes,no,300234063982330,SVP-B,USIABP,APLIS,North
2016-03-14T01:00:28Z,1457917229,2016,1,0,74.042,74.042,73.144,-149.4436,1015.4,-20.19,-999.0,yes,yes,no,300234063982330,SVP-B,USIABP,APLIS,North
2016-03-14T01:59:31Z,1457920771,2016,2,0,74.083,74.083,73.1436,-149.44321,1015.2,-20.62,-999.0,yes,yes,no,300234063982330,SVP-B,USIABP,APLIS,North
2016-03-14T03:00:00Z,1457924400,2016,3,0,74.125,74.125,73.1434,-149.44299,1015.2,-21.08,-999.0,yes,yes,no,300234063982330,SVP-B,USIABP,APLIS,North
2016-03-14T04:00:28Z,1457928029,2016,4,0,74.167,74.167,73.1434,-149.44279,1015.0,-21.57,-999.0,yes,yes,no,300234063982330,SVP-B,USIABP,APLIS,North
2016-03-14T04:59:31Z,1457931571,2016,5,0,74.208,74.208,73.1434,-149.44279,1015.4,-21.75,-999.0,yes,yes,no,300234063982330,SVP-B,USIABP,APLIS,North
2016-03-14T06:00:00Z,1457935200,2016,6,0,74.25,74.25,73.1434,-149.4426,1015.5,-21.96,-999.0,yes,yes,no,300234063982330,SVP-B,USIABP,APLIS,North
2016-03-14T07:00:28Z,1457938829,2016,7,0,74.292,74.292,73.1434,-149.4424,1015.4,-22.32,-999.0,yes,yes,no,300234063982330,SVP-B,USIABP,APLIS,North
2016-03-14T07:59:31Z,1457942371,2016,8,0,74.333,74.333,73.1434,-149.4422,1015.4,-22.67,-999.0,yes,yes,no,300234063982330,SVP-B,USIABP,APLIS,North
2016-03-14T09:00:00Z,1457946000,2016,9,0,74.375,74.375,73.1432,-149.4422,1015.7,-22.97,-999.0,yes,yes,no,300234063982330,SVP-B,USIABP,APLIS,North
2016-03-14T10:00:28Z,1457949629,2016,10,0,74.417,74.417,73.142,-149.44099,1015.8,-23.37,-999.0,yes,yes,no,300234063982330,SVP-B,USIABP,APLIS,North
2016-03-14T10:59:31Z,1457953171,2016,11,0,74.458,74.458,73.1406,-149.439,1015.9,-23.4,-999.0,yes,yes,no,300234063982330,SVP-B,USIABP,APLIS,North
2016-03-14T12:00:00Z,1457956800,2016,12,0,74.5,74.5,73.1392,-149.43739,1015.9,-23.22,-999.0,yes,yes,no,300234063982330,SVP-B,USIABP,APLIS,North
2016-03-14T13:00:28Z,1457960429,2016,13,0,74.542,74.542,73.1382,-149.436,1016.2,-23.15,-999.0,yes,yes,no,300234063982330,SVP-B,USIABP,APLIS,North
2016-03-14T13:59:31Z,1457963971,2016,14,0,74.583,74.583,73.137,-149.4352,1016.7,-23.0,-999.0,yes,yes,no,300234063982330,SVP-B,USIABP,APLIS,North
2016-03-14T15:00:00Z,1457967600,2016,15,0,74.625,74.625,73.1362,-149.4342,1016.9,-23.02,-999.0,yes,yes,no,300234063982330,SVP-B,USIABP,APLIS,North
2016-03-14T16:00:28Z,1457971229,2016,16,0,74.667,74.667,73.1352,-149.43381,1016.7,-23.34,-999.0,yes,yes,no,300234063982330,SVP-B,USIABP,APLIS,North
2016-03-14T16:59:31Z,1457974771,2016,17,0,74.708,74.708,73.135,-149.43359,1017.2,-23.72,-999.0,yes,yes,no,300234063982330,SVP-B,USIABP,APLIS,North
2016-03-14T18:00:00Z,1457978400,2016,18,0,74.75,74.75,73.135,-149.43339,1017.6,-23.2,-999.0,yes,yes,no,300234063982330,SVP-B,USIABP,APLIS,North
2016-03-14T19:00:28Z,1457982029,2016,19,0,74.792,74.792,73.135,-149.43339,1017.9,-22.01,-999.0,yes,yes,no,300234063982330,SVP-B,USIABP,APLIS,North
2016-03-14T19:59:31Z,1457985571,2016,20,0,74.833,74.833,73.1348,-149.4326,1018.6,-20.05,-999.0,yes,yes,no,300234063982330,SVP-B,USIABP,APLIS,North
2016-03-14T21:00:00Z,1457989200,2016,21,0,74.875,74.875,73.1336,-149.43179,1019.0,-18.99,-999.0,yes,yes,no,300234063982330,SVP-B,USIABP,APLIS,North
2016-03-14T22:00:28Z,1457992829,2016,22,0,74.917,74.917,73.1326,-149.4312,1019.4,-19.14,-999.0,yes,yes,no,300234063982330,SVP-B,USIABP,APLIS,North
2016-03-14T22:59:31Z,1457996371,2016,23,0,74.958,74.958,73.1316,-149.4296,1019.7,-19.61,-999.0,yes,yes,no,300234063982330,SVP-B,USIABP,APLIS,North
2016-03-15T00:00:00Z,1458000000,2016,0,0,75.0,75.0,73.1306,-149.42841,1020.1,-21.03,-999.0,yes,yes,no,300234063982330,SVP-B,USIABP,APLIS,North
2016-03-15T01:00:28Z,1458003629,2016,1,0,75.042,75.042,73.1298,-149.42799,1020.4,-21.36,-999.0,yes,yes,no,300234063982330,SVP-B,USIABP,APLIS,North
2016-03-15T01:59:31Z,1458007171,2016,2,0,75.083,75.083,73.1288,-149.4272,1020.8,-21.88,-999.0,yes,yes,no,300234063982330,SVP-B,USIABP,APLIS,North
2016-03-15T03:00:00Z,1458010800,2016,3,0,75.125,75.125,73.128,-149.4266,1020.9,-22.06,-999.0,yes,yes,no,300234063982330,SVP-B,USIABP,APLIS,North
2016-03-15T04:00:28Z,1458014429,2016,4,0,75.167,75.167,73.128,-149.4266,1021.3,-22.55,-999.0,yes,yes,no,300234063982330,SVP-B,USIABP,APLIS,North
2016-03-15T04:59:31Z,1458017971,2016,5,0,75.208,75.208,73.128,-149.42641,1021.8,-23.01,-999.0,yes,yes,no,300234063982330,SVP-B,USIABP,APLIS,North
2016-03-15T06:00:00Z,1458021600,2016,6,0,75.25,75.25,73.1278,-149.42619,1022.0,-23.13,-999.0,yes,yes,no,300234063982330,SVP-B,USIABP,APLIS,North
2016-03-15T07:00:28Z,1458025229,2016,7,0,75.292,75.292,73.128,-149.42619,1022.4,-23.11,-999.0,yes,yes,no,300234063982330,SVP-B,USIABP,APLIS,North
2016-03-15T07:59:31Z,1458028771,2016,8,0,75.333,75.333,73.128,-149.426,1022.8,-23.45,-999.0,yes,yes,no,300234063982330,SVP-B,USIABP,APLIS,North
2016-03-15T09:00:00Z,1458032400,2016,9,0,75.375,75.375,73.1278,-149.4258,1023.1,-23.65,-999.0,yes,yes,no,300234063982330,SVP-B,USIABP,APLIS,North
2016-03-15T10:00:28Z,1458036029,2016,10,0,75.417,75.417,73.1278,-149.4256,1023.3,-23.66,-999.0,yes,yes,no,300234063982330,SVP-B,USIABP,APLIS,North
2016-03-15T10:59:31Z,1458039571,2016,11,0,75.458,75.458,73.128,-149.4254,1023.6,-23.87,-999.0,yes,yes,no,300234063982330,SVP-B,USIABP,APLIS,North
2016-03-15T12:00:00Z,1458043200,2016,12,0,75.5,75.5,73.128,-149.4252,1023.8,-24.57,-999.0,yes,yes,no,300234063982330,SVP-B,USIABP,APLIS,North
2016-03-15T13:00:28Z,1458046829,2016,13,0,75.542,75.542,73.128,-149.42461,1023.9,-25.03,-999.0,yes,yes,no,300234063982330,SVP-B,USIABP,APLIS,North